VIV7428 MMSM-MMTG

Flight info

Callsign VIV7428
Flight time 1h 10m
Altitude 35000
Route ILETO2H ILETO UT109 VER UA552 TGZ
Aircraft A321/M-SDE3FGHIRWY/LB1

Departure

Time 2026-05-03 22:54
Airport Felipe Ángeles International Airport (MMSM)

Arrival

Time 2026-05-04 00:04
Airport Angel Albino Corzo International Airport (MMTG)
Time Latitude Longitude Altitude Speed Heading
2026-05-03 21:52 19.73132 -99.02607 7378 ft 0 kts 320°
2026-05-03 22:36 19.73128 -99.02604 7377 ft 3 kts 320°
2026-05-03 22:36 19.73112 -99.02590 7377 ft 3 kts 320°
2026-05-03 22:36 19.73097 -99.02576 7377 ft 3 kts 320°
2026-05-03 22:37 19.73081 -99.02562 7377 ft 2 kts 320°
2026-05-03 22:37 19.73067 -99.02550 7377 ft 3 kts 345°
2026-05-03 22:37 19.73051 -99.02550 7377 ft 3 kts 30°
2026-05-03 22:37 19.73035 -99.02563 7377 ft 3 kts 49°
2026-05-03 22:38 19.73030 -99.02569 7377 ft 0 kts 49°
2026-05-03 22:40 19.73030 -99.02568 7377 ft 0 kts 49°
2026-05-03 22:41 19.73031 -99.02567 7377 ft 1 kts 49°
2026-05-03 22:41 19.73061 -99.02528 7377 ft 9 kts 59°
2026-05-03 22:41 19.73108 -99.02474 7376 ft 10 kts 46°
2026-05-03 22:41 19.73147 -99.02425 7377 ft 8 kts 49°
2026-05-03 22:42 19.73180 -99.02386 7377 ft 6 kts 49°
2026-05-03 22:42 19.73205 -99.02355 7377 ft 5 kts 49°
2026-05-03 22:42 19.73225 -99.02331 7377 ft 4 kts 49°
2026-05-03 22:42 19.73241 -99.02310 7377 ft 4 kts 49°
2026-05-03 22:43 19.73258 -99.02291 7377 ft 3 kts 49°
2026-05-03 22:43 19.73273 -99.02271 7376 ft 3 kts 50°
2026-05-03 22:43 19.73288 -99.02253 7376 ft 3 kts 48°
2026-05-03 22:43 19.73303 -99.02236 7377 ft 3 kts 48°
2026-05-03 22:44 19.73316 -99.02220 7377 ft 3 kts 49°
2026-05-03 22:44 19.73329 -99.02204 7377 ft 3 kts 49°
2026-05-03 22:44 19.73342 -99.02189 7377 ft 3 kts 49°
2026-05-03 22:44 19.73355 -99.02173 7377 ft 3 kts 49°
2026-05-03 22:45 19.73369 -99.02154 7377 ft 4 kts 50°
2026-05-03 22:45 19.73389 -99.02130 7377 ft 5 kts 50°
2026-05-03 22:45 19.73421 -99.02090 7377 ft 9 kts 49°
2026-05-03 22:45 19.73470 -99.02032 7377 ft 12 kts 48°
2026-05-03 22:46 19.73535 -99.01954 7377 ft 16 kts 49°
2026-05-03 22:46 19.73613 -99.01857 7377 ft 19 kts 49°
2026-05-03 22:46 19.73704 -99.01746 7377 ft 21 kts 49°
2026-05-03 22:46 19.73806 -99.01622 7377 ft 19 kts 48°
2026-05-03 22:47 19.73877 -99.01535 7376 ft 12 kts 57°
2026-05-03 22:47 19.73869 -99.01446 7376 ft 14 kts 76°
2026-05-03 22:47 19.73931 -99.01359 7376 ft 16 kts 49°
2026-05-03 22:47 19.74012 -99.01259 7377 ft 19 kts 49°
2026-05-03 22:48 19.74105 -99.01146 7376 ft 22 kts 49°
2026-05-03 22:48 19.74208 -99.01019 7377 ft 24 kts 49°
2026-05-03 22:48 19.74321 -99.00882 7377 ft 26 kts 49°
2026-05-03 22:48 19.74441 -99.00733 7377 ft 27 kts 49°
2026-05-03 22:49 19.74571 -99.00575 7376 ft 29 kts 49°
2026-05-03 22:49 19.74708 -99.00409 7376 ft 30 kts 48°
2026-05-03 22:49 19.74801 -99.00296 7377 ft 30 kts 48°
2026-05-03 22:49 19.74988 -99.00067 7377 ft 31 kts 49°
2026-05-03 22:50 19.75072 -98.99965 7377 ft 25 kts 49°
2026-05-03 22:50 19.75185 -98.99828 7377 ft 12 kts 47°
2026-05-03 22:50 19.75246 -98.99752 7377 ft 15 kts 49°
2026-05-03 22:50 19.75322 -98.99659 7377 ft 18 kts 49°
2026-05-03 22:51 19.75412 -98.99548 7377 ft 21 kts 49°
2026-05-03 22:51 19.75513 -98.99425 7377 ft 23 kts 49°
2026-05-03 22:51 19.75623 -98.99289 7377 ft 22 kts 49°
2026-05-03 22:51 19.75647 -98.99206 7377 ft 12 kts 129°
2026-05-03 22:52 19.75579 -98.99140 7377 ft 15 kts 141°
2026-05-03 22:52 19.75520 -98.99091 7378 ft 7 kts 147°
2026-05-03 22:52 19.75477 -98.99107 7378 ft 0 kts 227°
2026-05-03 22:52 19.75466 -98.99120 7377 ft 17 kts 227°
2026-05-03 22:53 19.75229 -98.99401 7377 ft 84 kts 229°
2026-05-03 22:53 19.74720 -99.00032 7378 ft 140 kts 229°
2026-05-03 22:53 19.73985 -99.00930 7377 ft 184 kts 229°
2026-05-03 22:53 19.73080 -99.02029 7671 ft 203 kts 229°
2026-05-03 22:54 19.72185 -99.03167 8368 ft 200 kts 229°
2026-05-03 22:54 19.71322 -99.04301 8778 ft 195 kts 229°
2026-05-03 22:54 19.70455 -99.05397 9080 ft 195 kts 231°
2026-05-03 22:54 19.69575 -99.06487 9533 ft 194 kts 230°
2026-05-03 22:55 19.68691 -99.07553 10002 ft 190 kts 229°
2026-05-03 22:55 19.67819 -99.08600 10343 ft 193 kts 229°
2026-05-03 22:55 19.66919 -99.09678 10591 ft 196 kts 229°
2026-05-03 22:55 19.66013 -99.10764 10940 ft 197 kts 229°
2026-05-03 22:56 19.65099 -99.11862 11164 ft 203 kts 229°
2026-05-03 22:56 19.64134 -99.13022 11262 ft 215 kts 229°
2026-05-03 22:56 19.63118 -99.14241 11363 ft 225 kts 229°
2026-05-03 22:56 19.62047 -99.15526 11422 ft 240 kts 229°
2026-05-03 22:57 19.60898 -99.16910 11526 ft 259 kts 229°
2026-05-03 22:57 19.59666 -99.18391 11663 ft 278 kts 227°
2026-05-03 22:57 19.58093 -99.19669 11828 ft 295 kts 204°
2026-05-03 22:57 19.56080 -99.20180 12258 ft 303 kts 181°
2026-05-03 22:58 19.53999 -99.19799 12796 ft 308 kts 159°
2026-05-03 22:58 19.52162 -99.18605 13378 ft 313 kts 145°
2026-05-03 22:58 19.50415 -99.17220 13957 ft 315 kts 145°
2026-05-03 22:58 19.48682 -99.15832 14462 ft 318 kts 144°
2026-05-03 22:59 19.46911 -99.14411 14927 ft 321 kts 145°
2026-05-03 22:59 19.45125 -99.12977 15393 ft 324 kts 145°
2026-05-03 22:59 19.43318 -99.11531 15840 ft 327 kts 144°
2026-05-03 22:59 19.41566 -99.09968 16303 ft 333 kts 134°
2026-05-03 23:00 19.40261 -99.07928 16745 ft 338 kts 115°
2026-05-03 23:00 19.39583 -99.05515 17033 ft 350 kts 97°
2026-05-03 23:00 19.39656 -99.02906 17152 ft 363 kts 78°
2026-05-03 23:00 19.40206 -99.00241 17285 ft 377 kts 77°
2026-05-03 23:01 19.40784 -98.97483 17395 ft 391 kts 77°
2026-05-03 23:01 19.41377 -98.94623 17556 ft 402 kts 77°
2026-05-03 23:01 19.41971 -98.91711 17926 ft 406 kts 78°
2026-05-03 23:01 19.42564 -98.88768 18335 ft 410 kts 78°
2026-05-03 23:02 19.43159 -98.85801 18723 ft 414 kts 78°
2026-05-03 23:02 19.43757 -98.82806 19086 ft 417 kts 78°
2026-05-03 23:02 19.44509 -98.79828 19448 ft 420 kts 70°
2026-05-03 23:02 19.45543 -98.76926 19829 ft 423 kts 69°
2026-05-03 23:03 19.46591 -98.74000 20207 ft 425 kts 70°
2026-05-03 23:03 19.47408 -98.70979 20591 ft 428 kts 79°
2026-05-03 23:03 19.47724 -98.67838 20970 ft 430 kts 90°
2026-05-03 23:03 19.47624 -98.64685 21374 ft 432 kts 94°
2026-05-03 23:04 19.47484 -98.61473 21792 ft 435 kts 94°
2026-05-03 23:04 19.47348 -98.58265 22195 ft 437 kts 94°
2026-05-03 23:04 19.47214 -98.55039 22617 ft 438 kts 95°
2026-05-03 23:04 19.47081 -98.51796 22999 ft 442 kts 93°
2026-05-03 23:05 19.46944 -98.48528 23386 ft 445 kts 94°
2026-05-03 23:05 19.46806 -98.45285 23710 ft 448 kts 94°
2026-05-03 23:05 19.46635 -98.41980 24024 ft 450 kts 97°
2026-05-03 23:05 19.46067 -98.38722 24324 ft 450 kts 107°
2026-05-03 23:06 19.44990 -98.35605 24641 ft 451 kts 117°
2026-05-03 23:06 19.43477 -98.32703 24950 ft 451 kts 122°
2026-05-03 23:06 19.41868 -98.29831 25258 ft 454 kts 122°
2026-05-03 23:06 19.40262 -98.26947 25561 ft 456 kts 122°
2026-05-03 23:07 19.38650 -98.24045 25881 ft 458 kts 122°
2026-05-03 23:07 19.37032 -98.21131 26183 ft 460 kts 122°
2026-05-03 23:07 19.35404 -98.18204 26455 ft 463 kts 122°
2026-05-03 23:07 19.33764 -98.15261 26731 ft 465 kts 122°
2026-05-03 23:08 19.32112 -98.12301 26980 ft 467 kts 122°
2026-05-03 23:08 19.30454 -98.09328 27238 ft 470 kts 122°
2026-05-03 23:08 19.28792 -98.06343 27487 ft 472 kts 120°
2026-05-03 23:08 19.27381 -98.03201 27724 ft 475 kts 111°
2026-05-03 23:09 19.26463 -97.99872 27960 ft 478 kts 101°
2026-05-03 23:09 19.26034 -97.96385 28220 ft 480 kts 93°
2026-05-03 23:09 19.25823 -97.92845 28488 ft 482 kts 93°
2026-05-03 23:09 19.25611 -97.89299 28761 ft 483 kts 93°
2026-05-03 23:10 19.25395 -97.85736 29036 ft 485 kts 93°
2026-05-03 23:10 19.25174 -97.82162 29297 ft 487 kts 94°
2026-05-03 23:10 19.24951 -97.78580 29557 ft 489 kts 94°
2026-05-03 23:10 19.24723 -97.74975 29808 ft 492 kts 94°
2026-05-03 23:11 19.24493 -97.71356 30063 ft 494 kts 94°
2026-05-03 23:11 19.24264 -97.67724 30290 ft 496 kts 94°
2026-05-03 23:11 19.24037 -97.64083 30579 ft 496 kts 94°
2026-05-03 23:11 19.23812 -97.60455 30912 ft 494 kts 94°
2026-05-03 23:12 19.23584 -97.56821 31258 ft 493 kts 94°
2026-05-03 23:12 19.23356 -97.53208 31602 ft 492 kts 94°
2026-05-03 23:12 19.23128 -97.49601 31954 ft 491 kts 94°
2026-05-03 23:12 19.22899 -97.46002 32288 ft 489 kts 94°
2026-05-03 23:13 19.22673 -97.42457 32625 ft 488 kts 94°
2026-05-03 23:13 19.22442 -97.38879 32955 ft 487 kts 94°
2026-05-03 23:13 19.22209 -97.35301 33288 ft 486 kts 94°
2026-05-03 23:13 19.21976 -97.31733 33631 ft 485 kts 95°
2026-05-03 23:14 19.21743 -97.28174 33962 ft 484 kts 95°
2026-05-03 23:14 19.21514 -97.24627 34252 ft 483 kts 95°
2026-05-03 23:14 19.21283 -97.21083 34519 ft 482 kts 95°
2026-05-03 23:14 19.21051 -97.17543 34786 ft 482 kts 95°
2026-05-03 23:15 19.20820 -97.14011 34995 ft 482 kts 95°
2026-05-03 23:15 19.20357 -97.06968 35059 ft 478 kts 95°
2026-05-03 23:16 19.19889 -96.99964 35054 ft 477 kts 95°
2026-05-03 23:16 19.19419 -96.92959 35042 ft 477 kts 95°
2026-05-03 23:17 19.18950 -96.85966 35032 ft 477 kts 95°
2026-05-03 23:17 19.18479 -96.78962 35022 ft 477 kts 95°
2026-05-03 23:18 19.18017 -96.72015 35018 ft 477 kts 95°
2026-05-03 23:18 19.17542 -96.65012 35009 ft 477 kts 95°
2026-05-03 23:19 19.17298 -96.61512 35013 ft 477 kts 95°
2026-05-03 23:19 19.16815 -96.54480 35020 ft 477 kts 95°
2026-05-03 23:20 19.16333 -96.47486 35035 ft 477 kts 95°
2026-05-03 23:20 19.15844 -96.40486 35049 ft 477 kts 95°
2026-05-03 23:21 19.15350 -96.33490 35056 ft 477 kts 95°
2026-05-03 23:21 19.14853 -96.26483 35064 ft 478 kts 95°
2026-05-03 23:22 19.12504 -96.16363 35056 ft 473 kts 120°
2026-05-03 23:22 19.08984 -96.10571 35050 ft 471 kts 127°
2026-05-03 23:23 19.05281 -96.04787 35041 ft 473 kts 126°
2026-05-03 23:23 19.01617 -95.99063 35040 ft 473 kts 126°
2026-05-03 23:24 18.97922 -95.93299 35036 ft 474 kts 126°
2026-05-03 23:24 18.94219 -95.87533 35038 ft 474 kts 126°
2026-05-03 23:25 18.90513 -95.81772 35045 ft 474 kts 126°
2026-05-03 23:25 18.86803 -95.76011 35049 ft 474 kts 126°
2026-05-03 23:26 18.83098 -95.70261 35055 ft 474 kts 127°
2026-05-03 23:26 18.79396 -95.64510 35054 ft 473 kts 126°
2026-05-03 23:27 18.75694 -95.58773 35054 ft 473 kts 126°
2026-05-03 23:27 18.71993 -95.53044 35057 ft 472 kts 126°
2026-05-03 23:28 18.68293 -95.47323 35059 ft 472 kts 126°
2026-05-03 23:28 18.64591 -95.41599 35057 ft 472 kts 126°
2026-05-03 23:29 18.60890 -95.35884 35053 ft 472 kts 126°
2026-05-03 23:29 18.57187 -95.30173 35058 ft 472 kts 126°
2026-05-03 23:30 18.53491 -95.24470 35058 ft 471 kts 126°
2026-05-03 23:30 18.49793 -95.18768 35057 ft 471 kts 126°
2026-05-03 23:31 18.46094 -95.13071 35058 ft 471 kts 126°
2026-05-03 23:31 18.42388 -95.07385 35056 ft 471 kts 126°
2026-05-03 23:32 18.38684 -95.01692 35059 ft 471 kts 126°
2026-05-03 23:32 18.34984 -94.96008 35057 ft 471 kts 126°
2026-05-03 23:33 18.31275 -94.90324 35056 ft 471 kts 126°
2026-05-03 23:33 18.27564 -94.84637 35048 ft 471 kts 126°
2026-05-03 23:34 18.23859 -94.78964 35047 ft 471 kts 126°
2026-05-03 23:34 18.20145 -94.73279 35042 ft 471 kts 126°
2026-05-03 23:35 18.16435 -94.67612 35046 ft 471 kts 126°
2026-05-03 23:35 18.12744 -94.61984 35047 ft 470 kts 126°
2026-05-03 23:36 18.08713 -94.56602 35050 ft 467 kts 137°
2026-05-03 23:36 18.04054 -94.51840 35048 ft 467 kts 137°
2026-05-03 23:37 17.99397 -94.47069 35048 ft 467 kts 137°
2026-05-03 23:37 17.95521 -94.43102 35045 ft 467 kts 137°
2026-05-03 23:38 17.90861 -94.38337 35041 ft 467 kts 137°
2026-05-03 23:38 17.85446 -94.32806 35035 ft 467 kts 137°
2026-05-03 23:39 17.81545 -94.28821 35033 ft 467 kts 137°
2026-05-03 23:39 17.76910 -94.24088 35032 ft 467 kts 137°
2026-05-03 23:40 17.72250 -94.19333 35034 ft 467 kts 137°
2026-05-03 23:40 17.67579 -94.14572 34430 ft 473 kts 137°
2026-05-03 23:41 17.65192 -94.12143 33472 ft 482 kts 137°
2026-05-03 23:41 17.62784 -94.09692 32867 ft 480 kts 137°
2026-05-03 23:41 17.60397 -94.07263 32350 ft 477 kts 136°
2026-05-03 23:41 17.58022 -94.04846 31816 ft 475 kts 136°
2026-05-03 23:42 17.55656 -94.02437 31259 ft 473 kts 136°
2026-05-03 23:42 17.53297 -94.00037 30708 ft 472 kts 136°
2026-05-03 23:42 17.50949 -93.97649 30165 ft 470 kts 136°
2026-05-03 23:42 17.48610 -93.95274 29565 ft 467 kts 136°
2026-05-03 23:43 17.46289 -93.92917 29041 ft 463 kts 136°
2026-05-03 23:43 17.43982 -93.90578 28503 ft 459 kts 136°
2026-05-03 23:43 17.41699 -93.88263 27977 ft 454 kts 136°
2026-05-03 23:43 17.39438 -93.85971 27462 ft 451 kts 136°
2026-05-03 23:44 17.37198 -93.83704 26967 ft 446 kts 136°
2026-05-03 23:44 17.34975 -93.81453 26463 ft 443 kts 136°
2026-05-03 23:44 17.32769 -93.79219 25996 ft 439 kts 135°
2026-05-03 23:44 17.30612 -93.77035 25539 ft 436 kts 135°
2026-05-03 23:45 17.28441 -93.74839 25080 ft 433 kts 135°
2026-05-03 23:45 17.26277 -93.72652 24620 ft 431 kts 135°
2026-05-03 23:45 17.24129 -93.70477 24177 ft 429 kts 135°
2026-05-03 23:45 17.21986 -93.68307 23710 ft 428 kts 135°
2026-05-03 23:46 17.19852 -93.66150 23199 ft 426 kts 135°
2026-05-03 23:46 17.17726 -93.64000 22723 ft 423 kts 135°
2026-05-03 23:46 17.15617 -93.61869 22260 ft 421 kts 135°
2026-05-03 23:46 17.13516 -93.59746 21774 ft 419 kts 135°
2026-05-03 23:47 17.11426 -93.57636 21279 ft 417 kts 135°
2026-05-03 23:47 17.09345 -93.55536 20789 ft 416 kts 135°
2026-05-03 23:47 17.07269 -93.53442 20301 ft 414 kts 135°
2026-05-03 23:47 17.05215 -93.51370 20077 ft 405 kts 135°
2026-05-03 23:48 17.03221 -93.49363 20028 ft 391 kts 135°
2026-05-03 23:48 17.01266 -93.47395 20030 ft 390 kts 135°
2026-05-03 23:48 16.99299 -93.45413 19320 ft 398 kts 135°
2026-05-03 23:48 16.97320 -93.43419 18646 ft 400 kts 135°
2026-05-03 23:49 16.95296 -93.41379 17859 ft 398 kts 135°
2026-05-03 23:49 16.93315 -93.39384 17112 ft 394 kts 135°
2026-05-03 23:49 16.91382 -93.37436 16413 ft 389 kts 135°
2026-05-03 23:49 16.89458 -93.35498 15858 ft 380 kts 135°
2026-05-03 23:50 16.87593 -93.33619 15557 ft 364 kts 135°
2026-05-03 23:50 16.85818 -93.31835 15442 ft 344 kts 135°
2026-05-03 23:50 16.84122 -93.30133 15115 ft 333 kts 135°
2026-05-03 23:50 16.82461 -93.28471 14653 ft 329 kts 135°
2026-05-03 23:51 16.80855 -93.26864 14167 ft 325 kts 135°
2026-05-03 23:51 16.79226 -93.25231 13645 ft 322 kts 135°
2026-05-03 23:51 16.77620 -93.23618 13123 ft 319 kts 135°
2026-05-03 23:51 16.76030 -93.22022 12600 ft 316 kts 135°
2026-05-03 23:52 16.74448 -93.20438 12099 ft 313 kts 135°
2026-05-03 23:52 16.72892 -93.18879 11758 ft 305 kts 135°
2026-05-03 23:52 16.71404 -93.17387 11634 ft 289 kts 135°
2026-05-03 23:52 16.69995 -93.15973 11368 ft 275 kts 135°
2026-05-03 23:53 16.68619 -93.14590 10843 ft 274 kts 135°
2026-05-03 23:53 16.67254 -93.13219 10362 ft 271 kts 135°
2026-05-03 23:53 16.65936 -93.11897 10176 ft 253 kts 135°
2026-05-03 23:53 16.64703 -93.10660 9974 ft 239 kts 135°
2026-05-03 23:54 16.63515 -93.09471 9939 ft 238 kts 135°
2026-05-03 23:54 16.62316 -93.08270 9703 ft 238 kts 135°
2026-05-03 23:54 16.61125 -93.07079 9382 ft 235 kts 134°
2026-05-03 23:54 16.60002 -93.05954 9176 ft 219 kts 134°
2026-05-03 23:55 16.58923 -93.04875 8857 ft 213 kts 134°
2026-05-03 23:55 16.57858 -93.03810 8549 ft 212 kts 134°
2026-05-03 23:55 16.56806 -93.02746 8268 ft 211 kts 132°
2026-05-03 23:55 16.55807 -93.01634 7999 ft 209 kts 129°
2026-05-03 23:56 16.54852 -93.00523 7735 ft 202 kts 129°
2026-05-03 23:56 16.53928 -92.99444 7474 ft 198 kts 128°
2026-05-03 23:56 16.53017 -92.98379 7218 ft 196 kts 128°
2026-05-03 23:56 16.52110 -92.97322 6972 ft 195 kts 129°
2026-05-03 23:57 16.51209 -92.96275 6730 ft 194 kts 128°
2026-05-03 23:57 16.50309 -92.95230 6478 ft 193 kts 129°
2026-05-03 23:57 16.49409 -92.94186 6218 ft 194 kts 128°
2026-05-03 23:57 16.48509 -92.93142 5954 ft 194 kts 129°
2026-05-03 23:58 16.47605 -92.92095 5705 ft 194 kts 129°
2026-05-03 23:58 16.46712 -92.91063 5459 ft 195 kts 129°
2026-05-03 23:58 16.45800 -92.90023 5213 ft 195 kts 133°
2026-05-03 23:58 16.44641 -92.89328 5051 ft 194 kts 166°
2026-05-03 23:59 16.43325 -92.89368 4916 ft 189 kts 200°
2026-05-03 23:59 16.42248 -92.90083 4775 ft 183 kts 231°
2026-05-03 23:59 16.41667 -92.91221 4624 ft 178 kts 260°
2026-05-03 23:59 16.41674 -92.92471 4481 ft 171 kts 288°
2026-05-04 00:00 16.42213 -92.93539 4364 ft 165 kts 313°
2026-05-04 00:00 16.43117 -92.94238 4182 ft 161 kts 329°
2026-05-04 00:00 16.44055 -92.94838 3998 ft 155 kts 329°
2026-05-04 00:00 16.44955 -92.95415 3799 ft 148 kts 329°
2026-05-04 00:01 16.45828 -92.95974 3613 ft 147 kts 328°
2026-05-04 00:01 16.46706 -92.96536 3426 ft 149 kts 328°
2026-05-04 00:01 16.47583 -92.97097 3254 ft 147 kts 328°
2026-05-04 00:01 16.48449 -92.97652 3052 ft 145 kts 328°
2026-05-04 00:02 16.49311 -92.98204 2876 ft 145 kts 328°
2026-05-04 00:02 16.50161 -92.98748 2708 ft 145 kts 327°
2026-05-04 00:02 16.51014 -92.99291 2518 ft 144 kts 328°
2026-05-04 00:02 16.51882 -92.99806 2333 ft 143 kts 326°
2026-05-04 00:03 16.52733 -93.00339 2144 ft 143 kts 325°
2026-05-04 00:03 16.53559 -93.00870 1934 ft 138 kts 327°
2026-05-04 00:03 16.54364 -93.01439 1736 ft 140 kts 327°
2026-05-04 00:03 16.55188 -93.01956 1599 ft 138 kts 323°
2026-05-04 00:04 16.55947 -93.02466 1513 ft 110 kts 326°
2026-05-04 00:04 16.56374 -93.02739 1514 ft 52 kts 328°
2026-05-04 00:04 16.56658 -93.02921 1515 ft 44 kts 328°
2026-05-04 00:04 16.56897 -93.03077 1514 ft 38 kts 328°
2026-05-04 00:05 16.57022 -93.03154 1514 ft 10 kts 329°
2026-05-04 00:05 16.57089 -93.03162 1514 ft 10 kts 15°
2026-05-04 00:05 16.57143 -93.03183 1513 ft 9 kts 284°
2026-05-04 00:05 16.57113 -93.03210 1513 ft 6 kts 163°
2026-05-04 00:06 16.57072 -93.03185 1514 ft 7 kts 149°
2026-05-04 00:06 16.57024 -93.03154 1511 ft 9 kts 148°
2026-05-04 00:06 16.56965 -93.03115 1513 ft 11 kts 148°
2026-05-04 00:06 16.56897 -93.03070 1514 ft 12 kts 147°
2026-05-04 00:07 16.56826 -93.03023 1515 ft 12 kts 149°
2026-05-04 00:07 16.56749 -93.02976 1513 ft 13 kts 149°
2026-05-04 00:07 16.56674 -93.02928 1515 ft 13 kts 148°
2026-05-04 00:07 16.56595 -93.02876 1515 ft 14 kts 147°
2026-05-04 00:08 16.56509 -93.02821 1515 ft 15 kts 149°
2026-05-04 00:08 16.56415 -93.02761 1514 ft 17 kts 148°
2026-05-04 00:08 16.56309 -93.02693 1513 ft 19 kts 147°
2026-05-04 00:08 16.56216 -93.02633 1513 ft 11 kts 148°
2026-05-04 00:09 16.56165 -93.02571 1513 ft 12 kts 121°
2026-05-04 00:09 16.56120 -93.02489 1513 ft 14 kts 119°
2026-05-04 00:09 16.56074 -93.02400 1514 ft 14 kts 118°
2026-05-04 00:09 16.56031 -93.02320 1514 ft 9 kts 119°
2026-05-04 00:10 16.56029 -93.02258 1514 ft 9 kts 68°
2026-05-04 00:10 16.56025 -93.02202 1513 ft 9 kts 126°
2026-05-04 00:10 16.56018 -93.02140 1514 ft 4 kts 83°
2026-05-04 00:10 16.56018 -93.02137 1514 ft 1 kts 83°
2026-05-04 00:11 16.56021 -93.02121 1512 ft 3 kts 79°
2026-05-04 00:11 16.56023 -93.02109 1514 ft 0 kts 79°